This demonstration page uses our WeatherBlox Daily Observations layout. Learn more.

38.89511, -77.03637

Hourly Observations for January 23, 2016

Temp ( °F °C ) Dew Point ( °F °C ) Humidity (%) Winds ( mph kmh ) Pressure ( in mb ) Visibility ( mi km ) Precip ( " mm )
12:16 am 00:16 Cloudy with Light Snow 24 -4.4 21 -6.1 88 88 undefined N/A 29.8 1009 1 1.60934 0.02 0.508
12:19 am 00:19 Windy with Snow Likely 24 -4.4 21 -6.1 88 88 NNE 22 35 29.8 1009 1 1.60934 0.02 0.508
12:30 am 00:30 Mostly Cloudy with Scattered Snow Showers 25 -4 21 -6 86 86 NNE 20 31 29.8 1009 0.75 1.207005 0 0
12:45 am 00:45 Mostly Cloudy with Snow 24 -4.4 21 -6.1 88 88 NNE 20 31 29.8 1009 0.5 0.80467 0.05 1.27
12:52 am 00:52 Mostly Cloudy with Heavy Snow 24 -4.4 21 -6.1 88 88 N 18 30 29.79 1009 0.25 0.402335 0.07 1.778
1:13 am 01:13 Mostly Cloudy with Snow 24 -4.4 22 -5.6 91 91 N 21 33 29.77 1008 0.25 0.402335 0.05 1.27
1:23 am 01:23 Mostly Cloudy with Snow 24 -4.4 21 -6.1 88 88 NNE 21 33 29.77 1008 0.25 0.402335 0.07 1.778
1:52 am 01:52 Mostly Cloudy with Snow 24 -4.4 21 -6.1 88 88 N 21 33 29.75 1007 0.25 0.402335 0.13 3.302
2:08 am 02:08 Mostly Cloudy with Snow 25 -4 21 -6 86 86 N 20 31 29.74 1007 1 1.60934 0 0
2:23 am 02:23 Mostly Cloudy with Snow 24 -4.4 21 -6.1 88 88 NNE 21 33 29.74 1007 0.5 0.80467 0.09 2.286
2:52 am 02:52 Mostly Cloudy with Snow 24 -4.4 21 -6.1 88 88 N 21 33 29.7 1006 0.25 0.402335 0.14 3.556
3:52 am 03:52 Mostly Cloudy with Snow 24 -4.4 21 -6.1 88 88 N 18 30 29.65 1004 0.25 0.402335 0.09 2.286
4:31 am 04:31 Cloudy with Snow 25 -3.9 22 -5.6 88 88 N 23 37 29.62 1003 0.75 1.207005 0.09 2.286
4:37 am 04:37 Cloudy with Snow 25 -3.9 22 -5.6 88 88 N 24 39 29.59 1002 1 1.60934 0.09 2.286
4:52 am 04:52 Windy with Snow Likely 25 -3.9 22 -5.6 88 88 N 25 41 29.59 1002 1 1.60934 0.11 2.794
5:45 am 05:45 Mostly Cloudy with Scattered Snow Showers 26 -3.3 23 -5 88 88 N 23 37 29.62 1003 0.75 1.207005 0.05 1.27
5:52 am 05:52 Windy with Snow Likely 26 -3.3 23 -5 88 88 N 21 33 29.61 1003 0.75 1.207005 0.07 1.778
6:13 am 06:13 Mostly Cloudy with Scattered Snow Showers 25 -3.9 23 -5 92 92 N 17 28 29.62 1003 0.25 0.402335 0.03 0.762
6:44 am 06:44 Mostly Cloudy with Scattered Snow Showers 25 -4 23 -5 93 93 N 20 31 29.62 1003 0.25 0.402335 0 0
6:52 am 06:52 Mostly Cloudy with Snow 25 -3.9 23 -5 92 92 N 20 31 29.62 1003 0.25 0.402335 0.09 2.286
7:19 am 07:19 Mostly Cloudy with Heavy Snow 25 -3.9 23 -5 92 92 N 22 35 29.62 1003 0.25 0.402335 0.02 0.508
7:52 am 07:52 Mostly Cloudy with Scattered Snow Showers 25 -3.9 23 -5 92 92 N 20 31 29.61 1003 0.75 1.207005 0.05 1.27
7:59 am 07:59 Mostly Cloudy with Scattered Snow Showers 25 -3.9 23 -5 92 92 N 20 31 29.62 1003 0.75 1.207005 0 0.0254
8:16 am 08:16 Mostly Cloudy with Snow 27 -3 23 -5 86 86 N 24 39 29.59 1002 0.5 0.80467 0 0
8:52 am 08:52 Mostly Cloudy with Scattered Snow Showers 26 -3.3 23 -5 88 88 N 21 33 29.59 1002 0.75 1.207005 0.05 1.27
9:52 am 09:52 Mostly Cloudy with Snow 27 -2.8 24 -4.4 89 89 N 26 43 29.59 1002 0.5 0.80467 0.02 0.508
10:52 am 10:52 Mostly Cloudy with Scattered Snow Showers 28 -2.2 24 -4.4 85 85 N 26 43 29.58 1002 0.75 1.207005 0.01 0.254
11:05 am 11:05 Windy with Snow Likely 28 -2.2 24 -4.4 85 85 N 26 43 29.59 1002 1 1.60934 0 0.0254
11:25 am 11:25 Windy with Snow Likely 27 -2.8 24 -4.4 89 89 N 29 46 29.59 1002 0.75 1.207005 0 0.0254
11:35 am 11:35 Windy with Snow Likely 28 -2.2 24 -4.4 85 85 N 28 44 29.59 1002 1 1.60934 0 0.0254
11:52 am 11:52 Windy with Snow Likely 28 -2.2 24 -4.4 85 85 N 26 43 29.57 1001 1 1.60934 0 0.0254
12:52 pm 12:52 Windy with Snow Likely 28 -2.2 25 -3.9 88 88 N 22 35 29.55 1001 1 1.60934 0 0.0254
1:00 pm 13:00 Windy with Snow Likely 27 -3 25 -4 93 93 N 25 41 29.56 1001 0.75 1.207005 0 0
1:19 pm 13:19 Windy with Snow Likely 28 -2.2 24 -4.4 85 85 N 26 43 29.56 1001 1 1.60934 0 0.0254
1:43 pm 13:43 Mostly Cloudy with Scattered Snow Showers 27 -2.8 24 -4.4 89 89 N 29 46 29.56 1001 0.75 1.207005 0 0.0254
1:52 pm 13:52 Mostly Cloudy with Scattered Snow Showers 27 -2.8 24 -4.4 89 89 N 25 41 29.55 1001 0.5 0.80467 0 0.0254
2:32 pm 14:32 Mostly Cloudy with Heavy Snow 27 -3 23 -5 86 86 N 29 46 29.56 1001 0.25 0.402335 0 0
2:52 pm 14:52 Mostly Cloudy with Heavy Snow 26 -3.3 24 -4.4 92 92 N 29 46 29.57 1001 1 1.60934 0.03 0.762
3:00 pm 15:00 Mostly Cloudy with Heavy Snow 27 -3 23 -5 86 86 N 31 50 29.56 1001 1 1.60934 0 0
3:52 pm 15:52 Mostly Cloudy with Heavy Snow 26 -3.3 23 -5 88 88 NNW 28 44 29.62 1003 0.25 0.402335 0.02 0.508
4:04 pm 16:04 Mostly Cloudy with Heavy Snow 27 -3 23 -5 86 86 NNW 29 46 29.62 1003 0.25 0.402335 0 0
4:26 pm 16:26 Mostly Cloudy with Heavy Snow 27 -3 23 -5 86 86 NNW 28 44 29.65 1004 0.25 0.402335 0 0
4:52 pm 16:52 Mostly Cloudy with Snow 26 -3.3 23 -5 88 88 NNW 26 43 29.66 1004 1 1.60934 0.02 0.508
5:18 pm 17:18 Mostly Cloudy with Snow 27 -3 25 -4 93 93 NNW 29 46 29.68 1005 1 1.60934 0 0
5:39 pm 17:39 Mostly Cloudy with Snow 27 -2.8 24 -4.4 89 89 NNW 25 41 29.68 1005 0.5 0.80467 0.03 0.762
5:52 pm 17:52 Mostly Cloudy with Snow 27 -2.8 24 -4.4 89 89 NNW 26 43 29.69 1005 0.5 0.80467 0.03 0.762
6:49 pm 18:49 Mostly Cloudy with Scattered Snow Showers 27 -3 25 -4 93 93 N 20 31 29.74 1007 1.75 2.816345 0.04 1.016
6:52 pm 18:52 Mostly Cloudy with Scattered Snow Showers 27 -2.8 24 -4.4 89 89 NNW 23 37 29.72 1007 1.75 2.816345 0.04 1.016
7:12 pm 19:12 Windy with Snow Likely 27 -3 25 -4 93 93 NNW 22 35 29.74 1007 1.75 2.816345 0 0
7:43 pm 19:43 Windy with Snow Likely 27 -2.8 24 -4.4 89 89 NNW 22 35 29.77 1008 1.5 2.41401 0 0.0254
7:52 pm 19:52 Windy with Snow Likely 27 -2.8 24 -4.4 89 89 NNW 26 43 29.76 1008 1.5 2.41401 0.01 0.254
8:52 pm 20:52 Windy with Snow Likely 27 -2.8 24 -4.4 89 89 N 21 33 29.79 1009 1.75 2.816345 0 0.0254
8:59 pm 20:59 Cloudy with Light Snow 28 -2.2 24 -4.4 85 85 N 18 30 29.8 1009 2.5 4.02335 0 0.0254
9:08 pm 21:08 Windy with Snow Likely 28 -2 25 -4 86 86 N 22 35 29.8 1009 3 4.82802 0 0
9:32 pm 21:32 Windy with Snow Likely 28 -2 23 -5 80 80 N 20 31 29.8 1009 2.5 4.02335 0 0
9:52 pm 21:52 Windy with Snow Likely 28 -2.2 23 -5 81 81 NNW 20 31 29.81 1009 4 6.43736 0 0.0254
9:55 pm 21:55 Cloudy with Light Snow 28 -2.2 23 -5 81 81 N 17 28 29.8 1009 5 8.0467 0 0.0254
10:24 pm 22:24 Windy with Snow Likely 28 -2 25 -4 86 86 N 20 31 29.83 1010 2.5 4.02335 0 0
10:32 pm 22:32 Cloudy with Light Snow 28 -2 23 -5 80 80 N 18 30 29.83 1010 3 4.82802 0 0
10:45 pm 22:45 Windy with Snow Likely 28 -2.2 24 -4.4 85 85 NNW 21 33 29.83 1010 5 8.0467 0 0.0254
10:52 pm 22:52 Windy with Snow Likely 28 -2.2 23 -5 81 81 N 20 31 29.83 1010 6 9.65604 0 0.0254
11:52 pm 23:52 Cloudy with Light Snow 29 -1.7 21 -6.1 72 72 N 15 24 29.84 1011 9 14.48406 0 0.0254

Powered by AerisWeather